Weather in Bolekhiv

Ukraine / Ivano-Frankovsk District     49°04′03″N   23°50′57″E
temp.,
°C
wind,
m/s
gust,
m/s
humid.,
%
clouds,
%
prec.,
mm/h
press.,
hPa
HPBL,
m
17 august, wed
wed1700:00+16wsw229071 0.1 101027
03:00+15wsw229239 0.1 101027
06:00+14wsw32924 0.0 101035
09:00+18w128282 0.0 1011222
12:00+21nw237679 1.1 10111019
15:00+21nnw238385 4.2 1012638
18:00+20nnw128525 2.7 1012489
21:00+17nnw01955 4.4 101311
18 august, thu
thu1800:00+16wsw11954 0.3 101312
03:00+15sw22945 0.3 101315
06:00+15sw11941 0.0 101311
09:00+19nw00860 0.0 1014189
12:00+24ne22600 0.0 1013850
15:00+26ene33502 0.0 10121373
18:00+25ene235228 0.0 10131557
21:00+19sse22807 0.0 101416
19 august, fri
fri1900:00+18s22845 0.0 101412
03:00+17ssw228383 0.0 101313
06:00+16ssw22825 0.0 101311
09:00+21ese12665 0.0 1013210
12:00+26e445120 0.0 10131033
15:00+28e444419 0.0 10121368
18:00+27e344910 0.0 10121164
21:00+19se227331 0.0 101225
20 august, sat
sat2000:00+18s227429 0.0 101313
03:00+18ssw227197 0.0 101215
06:00+18ssw227246 0.0 101112
09:00+23s1162100 0.0 1011130
12:00+29ene224686 0.0 1011870
15:00+30ene434495 0.0 10101228
18:00+29ene224935 0.1 1009834
21:00+19s3593100 3.4 101290
21 august, sun
sun2100:00+18wsw2292100 0.3 101240
03:00+17wsw1194100 1.6 101314
06:00+16nw1197100 0.8 101315
09:00+18n129396 0.9 1013327
12:00+20nne2284100 0.1 1013667
15:00+20n1281100 0.2 1013520
18:00+18wnw1295100 4.1 1013108
21:00+18nw1599100 7.4 1013371